Location: D�derode
(51.8092°N, 10.1065°E)
Time: 17:33:36
(UTC+00:00)

X-37B - Pass Details

Date: 16 April 2021
Orbit: 386 x 389 km, 45.0° (Epoch: 08 May)

Event Time Altitude Azimuth Distance (km) Brightness Sun altitude
Exits shadow 03:36:14 - 206° (SSW) 1,802 3.5 -7.2°
Reaches altitude 10° 03:37:44 10° 187° (S) 1,410 3.1 -7.0°
Maximum altitude 03:39:18 13° 157° (SSE) 1,239 3.1 -6.8°
Drops below altitude 10° 03:40:53 10° 127° (SE) 1,412 3.8 -6.6°
Sets 03:43:46 0° 99° (E) 2,268 5.5 -6.2°
